Precipitable_Water
0.08 0.10 0.15 0.17 0.17 0.15 0.14 0.17 0.14 0.16 0.17 0.21 0.25 0.28 0.30 0.34 0.37 0.38 0.40 0.40 0.47 0.53 0.57 0.61 0.65 0.68 0.74 0.93 1.04 1.27 1.40 1.30 1.27 1.35 1.40 1.39 1.35 1.34 1.33 1.08 0.81 0.75 0.76 0.79
0.07 0.11 0.20 0.15 0.15 0.17 0.15 0.16 0.17 0.17 0.17 0.25 0.27 0.31 0.29 0.32 0.35 0.35 0.39 0.40 0.45 0.52 0.55 0.59 0.65 0.70 0.73 0.87 0.95 1.10 1.21 1.25 1.30 1.26 1.34 1.37 1.31 1.31 1.33 1.32 1.29 1.08 0.89 0.83
0.07 0.16 0.16 0.11 0.14 0.17 0.15 0.18 0.18 0.14 0.19 0.23 0.24 0.27 0.28 0.31 0.34 0.35 0.38 0.43 0.44 0.49 0.54 0.58 0.62 0.66 0.73 0.78 0.88 0.97 1.05 1.04 1.19 1.29 1.35 1.33 1.33 1.27 1.27 1.30 1.32 1.34 1.35 1.25
0.09 0.13 0.07 0.13 0.15 0.21 0.17 0.17 0.18 0.19 0.20 0.21 0.24 0.29 0.28 0.31 0.33 0.35 0.39 0.42 0.43 0.47 0.52 0.58 0.60 0.64 0.71 0.75 0.83 0.91 1.03 1.02 1.12 1.34 1.43 1.32 1.27 1.26 1.25 1.27 1.31 1.29 1.30 1.43
0.11 0.10 0.12 0.12 0.12 0.14 0.14 0.15 0.16 0.17 0.19 0.20 0.22 0.23 0.23 0.27 0.29 0.33 0.37 0.41 0.47 0.51 0.52 0.54 0.61 0.62 0.62 0.70 0.75 0.80 0.82 1.01 1.08 1.09 1.19 1.26 1.20 1.17 1.21 1.23 1.24 1.26 1.33 1.32
0.11 0.07 0.07 0.11 0.13 0.14 0.15 0.12 0.16 0.17 0.17 0.17 0.19 0.16 0.19 0.24 0.26 0.28 0.33 0.37 0.42 0.49 0.51 0.52 0.55 0.61 0.62 0.61 0.64 0.69 0.75 0.79 0.92 0.98 1.04 1.09 1.12 1.15 1.16 1.20 1.19 1.24 1.28 1.36
0.08 0.09 0.11 0.11 0.12 0.14 0.09 0.11 0.15 0.15 0.16 0.16 0.15 0.18 0.20 0.20 0.21 0.25 0.26 0.30 0.36 0.41 0.46 0.48 0.54 0.58 0.60 0.59 0.62 0.64 0.72 0.74 0.80 0.89 0.94 1.00 1.06 1.11 1.13 1.14 1.15 1.17 1.22 1.28
0.09 0.07 0.07 0.12 0.11 0.10 0.13 0.15 0.14 0.14 0.15 0.15 0.16 0.17 0.18 0.18 0.18 0.19 0.22 0.24 0.28 0.34 0.39 0.43 0.44 0.47 0.52 0.55 0.64 0.64 0.68 0.72 0.70 0.82 0.82 0.94 0.95 1.01 1.03 1.05 1.05 1.10 1.13 1.15
0.09 0.08 0.11 0.13 0.11 0.12 0.13 0.13 0.14 0.15 0.16 0.16 0.16 0.16 0.17 0.18 0.18 0.18 0.19 0.21 0.23 0.27 0.33 0.38 0.42 0.45 0.45 0.54 0.57 0.64 0.65 0.68 0.71 0.71 0.80 0.81 0.89 0.91 0.94 1.00 1.01 1.04 1.04 1.05
0.10 0.11 0.11 0.12 0.14 0.15 0.15 0.15 0.15 0.16 0.17 0.18 0.17 0.17 0.17 0.18 0.19 0.19 0.19 0.19 0.21 0.21 0.24 0.29 0.35 0.41 0.40 0.44 0.51 0.56 0.59 0.59 0.68 0.74 0.71 0.77 0.83 0.85 0.85 0.91 0.93 0.92 0.94 0.96
0.11 0.12 0.13 0.14 0.15 0.15 0.16 0.16 0.16 0.18 0.18 0.18 0.17 0.17 0.18 0.18 0.19 0.20 0.21 0.21 0.20 0.20 0.21 0.23 0.27 0.31 0.39 0.40 0.45 0.49 0.53 0.57 0.59 0.60 0.67 0.72 0.73 0.81 0.81 0.86 0.91 0.85 0.89 0.94
0.10 0.13 0.14 0.15 0.16 0.17 0.16 0.16 0.17 0.17 0.18 0.18 0.18 0.18 0.18 0.18 0.19 0.20 0.22 0.22 0.21 0.20 0.21 0.21 0.23 0.25 0.30 0.38 0.39 0.40 0.43 0.46 0.52 0.54 0.56 0.64 0.68 0.72 0.79 0.80 0.82 0.84 0.88 0.94
0.13 0.16 0.15 0.16 0.17 0.17 0.16 0.17 0.17 0.18 0.18 0.18 0.18 0.18 0.17 0.18 0.20 0.21 0.22 0.22 0.23 0.22 0.22 0.22 0.21 0.22 0.25 0.29 0.33 0.34 0.36 0.42 0.45 0.50 0.51 0.52 0.55 0.59 0.65 0.71 0.70 0.76 0.78 0.80
0.15 0.15 0.14 0.15 0.15 0.17 0.17 0.18 0.18 0.18 0.18 0.18 0.17 0.18 0.19 0.20 0.21 0.22 0.22 0.23 0.22 0.22 0.22 0.23 0.23 0.22 0.24 0.25 0.25 0.30 0.33 0.35 0.41 0.43 0.47 0.51 0.48 0.51 0.56 0.59 0.62 0.64 0.69 0.70
0.14 0.15 0.15 0.16 0.16 0.16 0.17 0.18 0.17 0.16 0.17 0.16 0.16 0.17 0.20 0.22 0.23 0.23 0.25 0.24 0.23 0.23 0.22 0.23 0.24 0.23 0.25 0.25 0.24 0.24 0.27 0.32 0.34 0.36 0.39 0.42 0.44 0.48 0.50 0.50 0.57 0.54 0.57 0.60
0.15 0.16 0.16 0.15 0.15 0.16 0.16 0.16 0.16 0.16 0.16 0.15 0.15 0.17 0.20 0.22 0.23 0.24 0.25 0.25 0.25 0.24 0.24 0.23 0.23 0.24 0.25 0.24 0.23 0.23 0.23 0.25 0.28 0.31 0.33 0.36 0.40 0.43 0.45 0.48 0.49 0.50 0.51 0.53
0.15 0.14 0.15 0.15 0.17 0.16 0.16 0.16 0.17 0.16 0.15 0.15 0.16 0.19 0.21 0.22 0.23 0.23 0.24 0.25 0.25 0.25 0.26 0.25 0.24 0.26 0.26 0.26 0.24 0.23 0.24 0.24 0.24 0.23 0.28 0.33 0.38 0.39 0.40 0.44 0.46 0.47 0.50 0.52
0.16 0.16 0.17 0.17 0.16 0.16 0.16 0.16 0.16 0.15 0.14 0.16 0.18 0.21 0.22 0.22 0.21 0.22 0.24 0.25 0.26 0.26 0.26 0.26 0.27 0.27 0.27 0.27 0.26 0.25 0.24 0.23 0.23 0.22 0.22 0.25 0.29 0.32 0.38 0.40 0.41 0.43 0.45 0.49
0.18 0.18 0.18 0.17 0.17 0.16 0.15 0.15 0.14 0.15 0.17 0.19 0.21 0.23 0.23 0.23 0.24 0.23 0.23 0.23 0.24 0.24 0.26 0.28 0.28 0.27 0.26 0.27 0.27 0.26 0.25 0.24 0.24 0.22 0.22 0.22 0.22 0.26 0.30 0.33 0.36 0.39 0.41 0.43
0.17 0.17 0.17 0.16 0.16 0.15 0.14 0.15 0.16 0.18 0.20 0.23 0.24 0.24 0.24 0.23 0.23 0.23 0.24 0.23 0.25 0.27 0.29 0.29 0.29 0.28 0.28 0.28 0.27 0.27 0.27 0.26 0.25 0.25 0.25 0.25 0.24 0.24 0.24 0.28 0.31 0.34 0.37 0.38
0.15 0.15 0.14 0.15 0.14 0.15 0.17 0.19 0.20 0.22 0.24 0.24 0.24 0.24 0.22 0.23 0.24 0.26 0.24 0.23 0.26 0.30 0.32 0.30 0.29 0.29 0.29 0.29 0.30 0.29 0.28 0.26 0.25 0.24 0.23 0.24 0.25 0.26 0.25 0.23 0.23 0.27 0.32 0.33
0.14 0.14 0.13 0.14 0.16 0.18 0.20 0.22 0.23 0.24 0.24 0.24 0.25 0.24 0.24 0.24 0.24 0.24 0.25 0.25 0.28 0.29 0.29 0.30 0.29 0.30 0.30 0.30 0.28 0.27 0.28 0.27 0.25 0.24 0.22 0.23 0.22 0.22 0.24 0.26 0.26 0.25 0.25 0.26
0.13 0.13 0.14 0.17 0.19 0.20 0.22 0.23 0.24 0.24 0.24 0.25 0.24 0.25 0.24 0.23 0.24 0.22 0.22 0.26 0.26 0.26 0.26 0.27 0.28 0.30 0.31 0.30 0.29 0.29 0.28 0.26 0.24 0.23 0.24 0.24 0.24 0.24 0.23 0.24 0.27 0.29 0.28 0.26
0.13 0.15 0.18 0.21 0.21 0.21 0.21 0.22 0.23 0.23 0.24 0.25 0.23 0.24 0.23 0.22 0.23 0.24 0.25 0.26 0.26 0.26 0.26 0.28 0.28 0.29 0.30 0.31 0.30 0.29 0.29 0.27 0.26 0.26 0.26 0.25 0.25 0.26 0.26 0.26 0.28 0.31 0.30 0.31
0.14 0.18 0.20 0.21 0.21 0.20 0.21 0.22 0.22 0.22 0.22 0.22 0.22 0.22 0.23 0.24 0.23 0.24 0.24 0.25 0.25 0.25 0.26 0.28 0.30 0.31 0.32 0.32 0.33 0.31 0.30 0.28 0.29 0.30 0.29 0.28 0.28 0.28 0.28 0.28 0.30 0.32 0.32 0.30
0.16 0.20 0.21 0.21 0.20 0.21 0.21 0.21 0.19 0.20 0.20 0.20 0.20 0.22 0.23 0.23 0.23 0.23 0.24 0.24 0.25 0.25 0.25 0.26 0.27 0.27 0.29 0.29 0.30 0.30 0.30 0.29 0.29 0.29 0.29 0.30 0.30 0.29 0.29 0.29 0.30 0.31 0.31 0.31
0.20 0.22 0.21 0.20 0.20 0.20 0.19 0.19 0.18 0.17 0.18 0.17 0.17 0.19 0.19 0.20 0.20 0.20 0.21 0.22 0.22 0.23 0.24 0.24 0.25 0.25 0.25 0.26 0.26 0.26 0.26 0.26 0.26 0.26 0.26 0.26 0.27 0.26 0.26 0.26 0.26 0.27 0.28 0.28
Wind_Speed
18 13 5 1 6 7 6 5 2 6 7 12 14 15 18 17 17 15 12 6 7 11 15 18 21 25 30 34 37 44 46 45 45 44 43 42 42 41 41 40 42 43 44 44
12 11 6 5 5 5 5 5 4 5 7 13 13 13 17 16 16 17 12 8 4 6 11 14 15 20 26 29 32 37 43 48 47 43 44 44 43 43 43 42 40 41 43 43
6 4 2 10 9 2 6 5 6 7 10 14 14 12 16 15 15 17 15 11 4 2 7 11 12 15 21 25 28 32 33 35 43 46 45 44 43 43 43 43 44 43 41 42
6 6 5 5 8 5 6 8 7 8 10 12 14 11 13 13 14 15 14 15 7 3 3 6 10 13 15 19 24 28 28 32 36 34 40 41 42 42 42 43 43 43 46 42
7 4 3 11 11 9 10 5 9 10 12 12 15 13 11 14 14 15 12 9 11 8 1 4 7 9 14 17 19 22 26 28 29 32 35 39 41 42 42 42 43 45 45 44
9 5 5 11 12 12 11 3 13 13 14 15 16 13 13 16 15 14 12 11 9 5 3 2 5 8 9 14 18 19 21 25 27 29 32 35 37 39 40 41 41 41 42 42
11 7 5 13 13 13 7 13 17 16 16 16 16 15 17 17 15 13 11 11 8 6 3 1 2 4 5 12 13 17 18 21 24 25 29 31 34 35 36 38 39 39 38 38
12 12 9 16 13 10 13 16 18 19 20 20 20 20 20 19 17 15 14 12 9 7 5 5 4 6 9 9 11 14 16 19 21 21 25 26 30 31 33 34 35 36 36 36
11 11 12 13 13 13 15 18 19 22 23 23 24 24 23 23 21 18 16 14 13 9 6 5 4 3 1 5 10 12 14 15 18 20 19 23 25 26 29 29 30 31 33 33
13 9 14 14 15 17 18 19 20 22 23 24 25 26 26 25 24 22 19 17 14 12 9 8 8 9 10 5 3 10 12 17 16 16 19 19 21 23 25 24 27 28 29 30
13 11 17 15 19 21 21 21 22 21 21 23 24 25 26 26 26 25 24 21 19 17 15 14 13 11 9 12 12 10 10 9 14 17 17 20 21 21 22 22 23 25 26 26
15 17 16 19 21 22 23 24 23 23 23 23 23 24 25 25 26 27 26 26 25 24 22 19 16 15 15 14 13 13 13 16 17 17 18 19 21 22 22 23 23 23 23 22
17 18 19 20 21 24 24 25 25 25 25 25 24 24 25 25 25 26 26 27 27 27 27 27 25 22 19 19 18 17 16 13 10 12 17 17 17 24 23 24 23 25 23 22
18 20 21 22 24 25 26 26 26 26 25 25 25 25 24 24 24 24 25 25 28 29 29 29 28 27 25 24 21 22 21 22 22 22 17 17 21 23 18 20 20 20 21 22
20 20 23 25 26 26 27 27 27 27 27 27 26 26 25 24 23 23 23 25 25 26 28 29 30 30 30 29 28 27 25 24 22 23 24 25 26 23 23 23 23 25 25 25
20 23 25 26 27 28 27 26 26 27 28 28 28 27 26 25 24 23 23 23 24 25 26 27 29 31 33 34 34 33 32 30 29 28 27 27 27 28 28 29 28 28 28 26
22 24 26 27 27 27 26 26 26 27 28 28 28 28 26 24 24 23 24 23 24 25 27 28 29 30 31 33 35 36 36 36 34 34 33 30 29 29 28 29 27 26 27 28
25 26 26 26 26 26 25 25 26 27 28 28 28 26 25 26 25 24 24 25 25 25 26 27 28 28 29 31 33 35 37 39 39 39 38 37 35 34 33 32 32 33 33 32
26 25 24 24 23 22 23 24 27 28 28 28 27 25 26 25 24 25 25 25 25 25 25 26 27 29 30 31 32 33 34 36 39 41 42 42 41 41 40 39 38 37 36 36
23 22 21 21 21 22 25 26 28 29 29 27 26 25 25 26 26 26 25 25 24 23 24 25 26 28 28 29 30 32 34 35 36 38 40 43 44 45 45 45 45 44 42 41
21 21 22 23 24 25 26 28 29 28 27 26 26 26 27 27 26 26 24 24 23 23 24 24 24 25 27 28 29 30 31 33 34 35 37 39 42 45 46 49 50 49 48 47
22 23 24 26 27 28 28 28 26 26 26 26 26 26 26 25 24 23 23 22 22 23 23 24 25 26 26 28 30 31 32 32 32 33 34 36 39 42 45 49 50 52 53 53
23 25 26 27 26 25 25 25 25 25 25 24 23 23 23 22 19 18 18 19 21 22 24 25 26 26 26 26 26 27 27 29 30 31 33 35 37 40 43 46 48 50 52 53
25 26 25 24 22 21 22 23 24 24 23 21 20 20 19 18 16 16 18 20 21 23 23 23 24 24 24 23 23 24 24 25 26 27 29 31 33 35 37 40 44 46 48 49
25 24 21 20 20 19 20 21 22 22 22 21 21 20 20 18 18 19 19 20 21 21 21 20 20 18 17 19 19 20 22 23 24 25 27 28 28 29 31 33 37 40 43 45
23 19 18 18 18 18 18 19 19 20 21 21 21 22 21 21 21 20 20 20 20 19 18 17 16 15 15 14 14 14 16 18 20 22 23 23 23 24 26 27 29 31 35 38
17 16 15 15 15 15 16 17 18 19 21 22 22 23 23 24 24 24 23 22 21 20 18 17 15 14 14 14 15 16 18 19 21 22 24 25 25 24 24 24 25 26 28 30
Wind_Direction
308 299 296 295 23 28 36 17 337 351 340 337 334 331 343 342 349 353 350 320 269 225 221 221 222 220 217 218 218 218 216 214 216 219 221 222 220 219 219 220 221 222 222 225
299 312 166 44 357 27 47 23 354 343 345 335 331 334 346 352 356 357 360 345 314 227 219 216 219 219 216 218 219 220 221 219 218 220 222 222 222 222 222 221 221 222 225 227
299 33 77 21 350 2 69 29 351 350 333 335 336 344 347 346 352 5 10 359 350 286 223 216 220 217 215 217 217 217 219 222 222 222 222 221 222 223 224 224 224 225 226 230
316 310 53 3 9 201 59 15 354 339 336 340 334 330 343 347 349 358 358 5 354 289 242 216 220 218 210 214 216 216 216 220 221 223 218 221 223 224 225 227 227 229 230 233
343 70 185 2 353 316 285 318 342 332 329 330 330 330 338 343 349 352 356 343 5 29 279 230 214 217 214 213 210 216 218 223 225 225 224 225 225 225 227 229 231 232 234 237
7 21 345 335 334 319 288 283 329 322 321 323 323 324 325 332 335 336 349 1 1 340 335 291 240 226 224 220 217 217 223 225 227 227 226 227 228 228 229 231 233 234 236 237
4 343 347 337 329 320 323 290 307 309 308 310 310 307 309 318 324 330 335 342 346 359 7 349 243 209 218 224 221 223 221 224 227 229 227 227 227 228 230 231 233 233 233 236
1 359 335 335 330 329 301 299 300 302 302 298 297 299 302 305 311 313 322 330 329 319 320 313 295 252 240 230 227 231 232 223 224 224 227 227 227 228 230 231 231 231 231 235
358 2 354 349 351 334 316 306 304 301 299 295 292 293 294 296 296 298 300 301 306 308 307 288 270 282 8 185 226 227 228 230 225 224 226 224 223 225 227 228 228 229 232 233
336 338 347 342 345 344 336 327 317 309 305 300 294 291 289 288 287 286 287 287 286 285 289 287 270 264 263 260 257 227 228 227 220 226 223 223 220 226 225 224 227 230 232 236
316 317 336 335 338 338 336 332 327 321 315 309 302 295 290 287 284 281 278 279 279 278 275 271 273 267 270 247 251 253 243 245 227 224 235 225 221 225 225 225 225 231 236 235
315 320 322 324 328 329 332 332 330 326 321 318 312 304 297 290 286 280 277 275 272 271 273 274 271 264 258 257 258 255 254 244 241 243 227 225 226 224 228 228 231 235 232 234
301 306 309 313 321 325 326 329 328 326 324 321 319 313 305 297 291 285 279 275 271 270 269 270 270 270 265 257 254 251 249 241 238 230 232 227 228 230 226 227 231 233 238 239
300 303 305 310 314 319 321 322 324 324 324 323 321 318 312 307 297 289 285 280 276 273 268 267 266 265 262 262 253 252 251 249 249 247 246 238 237 237 236 237 229 226 234 239
300 302 304 308 309 311 315 317 320 321 323 324 322 318 316 312 307 298 289 285 281 276 271 267 264 262 262 261 260 260 257 252 252 251 250 250 245 243 240 239 242 244 244 242
307 305 305 307 311 311 311 314 316 319 321 322 322 321 318 311 305 302 295 290 285 280 277 273 269 265 262 261 260 260 259 257 255 254 254 250 249 249 248 247 247 245 244 242
318 315 311 307 309 311 310 310 312 315 317 318 319 318 317 315 310 303 299 295 289 283 280 275 272 270 266 263 260 258 258 258 256 256 256 255 254 254 252 249 246 244 243 242
321 319 316 313 309 309 309 309 311 313 314 315 315 314 313 313 311 307 302 297 292 287 283 278 274 271 268 266 264 261 259 257 256 256 256 255 255 254 254 253 251 250 249 248
324 323 321 320 318 314 312 312 313 313 313 313 312 311 310 308 307 307 306 301 294 289 285 281 277 275 271 267 264 262 261 259 258 257 256 256 256 254 254 253 253 253 252 252
332 331 331 329 326 322 318 316 315 313 313 311 310 309 308 306 303 301 301 298 295 292 289 283 279 275 273 271 267 263 262 261 261 260 259 257 256 256 255 255 255 254 253 252
337 336 333 331 327 325 322 320 318 316 314 312 310 310 308 305 302 300 297 296 295 295 291 286 282 278 273 271 268 266 264 262 262 262 261 260 259 258 257 256 255 254 253 253
337 335 333 331 330 327 326 326 324 321 319 316 314 312 311 308 306 302 299 296 296 296 295 291 286 283 280 275 270 267 265 264 264 264 264 264 264 262 260 258 256 255 254 254
336 335 333 333 333 334 337 337 336 332 328 324 322 321 320 317 314 312 310 308 305 302 301 295 290 287 284 278 272 268 264 265 265 266 268 269 269 268 265 261 258 256 255 254
336 336 336 337 340 343 344 348 351 352 350 348 344 340 337 332 326 321 317 314 312 310 306 303 298 292 283 279 273 266 264 266 267 269 273 275 275 275 271 265 260 257 255 254
336 338 340 344 346 348 350 353 357 1 4 6 5 4 1 356 346 337 330 325 321 318 315 311 311 302 288 286 273 270 267 267 269 274 277 279 280 281 278 271 264 259 256 256
337 341 345 348 351 355 358 3 6 10 11 11 10 9 7 4 359 354 349 344 340 337 331 324 318 311 300 293 291 285 280 277 278 279 282 284 284 286 286 279 271 264 260 257
338 343 347 353 360 4 8 12 14 15 15 15 14 13 12 10 7 4 0 355 351 346 343 339 335 328 315 304 295 291 289 287 286 284 283 282 282 284 286 285 279 272 266 262